DLH5NW EDDF-LIPE

Flight info

Callsign DLH5NW
Flight time 1h 6m
Altitude 37000
Route ANEKI2L/18 ANEKI Y163 NATOR DCT TRA/N0408F310 DCT ARGAX DCT RESIA DCT ATPED DCT TAGIP DCT MOVOR DCT ADOSA/N0337F190 M738 BENUS
Aircraft A320/M-SDE2E3FGIJ1LORWXYZ/HB1

Departure

Time 2026-05-06 14:29
Airport Frankfurt Main Airport (EDDF)

Arrival

Time 2026-05-06 15:35
Airport Bologna Guglielmo Marconi Airport (LIPE)
Time Latitude Longitude Altitude Speed Heading
2026-05-06 14:03 50.04548 8.56727 356 ft 0 kts 295°
2026-05-06 14:18 50.04548 8.56728 356 ft 1 kts 295°
2026-05-06 14:18 50.04539 8.56756 362 ft 3 kts 296°
2026-05-06 14:19 50.04531 8.56786 362 ft 3 kts 282°
2026-05-06 14:19 50.04530 8.56814 365 ft 2 kts 256°
2026-05-06 14:19 50.04536 8.56846 360 ft 3 kts 248°
2026-05-06 14:19 50.04546 8.56875 362 ft 3 kts 229°
2026-05-06 14:20 50.04561 8.56895 364 ft 3 kts 196°
2026-05-06 14:20 50.04559 8.56894 365 ft 3 kts 194°
2026-05-06 14:20 50.04538 8.56887 364 ft 3 kts 193°
2026-05-06 14:20 50.04528 8.56883 362 ft 0 kts 193°
2026-05-06 14:24 50.04475 8.56859 359 ft 13 kts 204°
2026-05-06 14:24 50.04428 8.56728 361 ft 16 kts 250°
2026-05-06 14:24 50.04384 8.56545 362 ft 20 kts 250°
2026-05-06 14:24 50.04334 8.56331 361 ft 22 kts 249°
2026-05-06 14:25 50.04280 8.56109 360 ft 23 kts 249°
2026-05-06 14:25 50.04224 8.55875 360 ft 24 kts 250°
2026-05-06 14:25 50.04166 8.55631 360 ft 24 kts 250°
2026-05-06 14:25 50.04107 8.55384 358 ft 24 kts 249°
2026-05-06 14:26 50.04050 8.55147 360 ft 24 kts 250°
2026-05-06 14:26 50.03991 8.54901 356 ft 25 kts 250°
2026-05-06 14:26 50.03930 8.54646 354 ft 26 kts 249°
2026-05-06 14:26 50.03862 8.54374 353 ft 27 kts 240°
2026-05-06 14:27 50.03773 8.54114 352 ft 27 kts 250°
2026-05-06 14:27 50.03708 8.53839 349 ft 27 kts 250°
2026-05-06 14:27 50.03640 8.53567 337 ft 27 kts 247°
2026-05-06 14:27 50.03574 8.53290 335 ft 27 kts 250°
2026-05-06 14:28 50.03507 8.53012 338 ft 26 kts 250°
2026-05-06 14:28 50.03447 8.52784 333 ft 21 kts 247°
2026-05-06 14:28 50.03387 8.52610 333 ft 17 kts 212°
2026-05-06 14:28 50.03258 8.52594 332 ft 24 kts 180°
2026-05-06 14:29 50.02869 8.52598 333 ft 92 kts 179°
2026-05-06 14:29 50.02033 8.52606 333 ft 148 kts 179°
2026-05-06 14:29 50.00892 8.52630 664 ft 170 kts 183°
2026-05-06 14:29 49.99690 8.52641 1404 ft 175 kts 181°
2026-05-06 14:30 49.98447 8.52729 2021 ft 186 kts 181°
2026-05-06 14:30 49.97077 8.52823 2395 ft 209 kts 181°
2026-05-06 14:30 49.95559 8.52923 2968 ft 225 kts 180°
2026-05-06 14:30 49.93982 8.53034 3826 ft 227 kts 181°
2026-05-06 14:31 49.92362 8.53147 4543 ft 244 kts 180°
2026-05-06 14:31 49.90611 8.53267 5289 ft 259 kts 180°
2026-05-06 14:31 49.88794 8.53396 6317 ft 264 kts 180°
2026-05-06 14:31 49.86937 8.53531 7317 ft 268 kts 180°
2026-05-06 14:32 49.85055 8.53666 8236 ft 273 kts 180°
2026-05-06 14:32 49.83139 8.53802 9139 ft 278 kts 179°
2026-05-06 14:32 49.81191 8.53940 10002 ft 282 kts 179°
2026-05-06 14:32 49.79218 8.54078 10881 ft 283 kts 179°
2026-05-06 14:33 49.77236 8.54034 11701 ft 288 kts 187°
2026-05-06 14:33 49.75220 8.53754 12459 ft 294 kts 187°
2026-05-06 14:33 49.73145 8.53473 12783 ft 315 kts 186°
2026-05-06 14:33 49.70900 8.53176 13295 ft 328 kts 187°
2026-05-06 14:34 49.68604 8.52877 13972 ft 334 kts 186°
2026-05-06 14:34 49.66280 8.52576 14681 ft 338 kts 186°
2026-05-06 14:34 49.63926 8.52268 15369 ft 341 kts 186°
2026-05-06 14:34 49.61542 8.51955 16077 ft 345 kts 186°
2026-05-06 14:35 49.59139 8.51638 16813 ft 348 kts 186°
2026-05-06 14:35 49.56719 8.51318 17543 ft 350 kts 186°
2026-05-06 14:35 49.54273 8.50995 18219 ft 354 kts 186°
2026-05-06 14:35 49.51810 8.50674 18801 ft 357 kts 185°
2026-05-06 14:36 49.49318 8.50348 19410 ft 360 kts 185°
2026-05-06 14:36 49.46811 8.50019 20004 ft 364 kts 185°
2026-05-06 14:36 49.44309 8.49688 20622 ft 366 kts 185°
2026-05-06 14:36 49.41736 8.49348 21222 ft 368 kts 186°
2026-05-06 14:37 49.39208 8.49017 21831 ft 370 kts 185°
2026-05-06 14:37 49.36626 8.48682 22362 ft 374 kts 186°
2026-05-06 14:37 49.34023 8.48345 22900 ft 378 kts 186°
2026-05-06 14:37 49.31400 8.48005 23421 ft 381 kts 186°
2026-05-06 14:38 49.28755 8.47662 23892 ft 383 kts 186°
2026-05-06 14:38 49.26087 8.47319 24367 ft 385 kts 185°
2026-05-06 14:38 49.23398 8.46971 24841 ft 387 kts 186°
2026-05-06 14:38 49.20710 8.46622 25310 ft 389 kts 185°
2026-05-06 14:39 49.18008 8.46268 25775 ft 390 kts 185°
2026-05-06 14:39 49.15305 8.45913 26242 ft 392 kts 185°
2026-05-06 14:39 49.12582 8.45558 26709 ft 393 kts 185°
2026-05-06 14:39 49.09848 8.45202 27165 ft 395 kts 185°
2026-05-06 14:40 49.07109 8.44836 27612 ft 396 kts 187°
2026-05-06 14:40 49.04400 8.44071 28044 ft 397 kts 193°
2026-05-06 14:40 49.01701 8.43126 28487 ft 399 kts 193°
2026-05-06 14:40 48.98986 8.42180 28922 ft 400 kts 192°
2026-05-06 14:41 48.96301 8.41250 29347 ft 402 kts 192°
2026-05-06 14:41 48.93538 8.40294 29805 ft 403 kts 192°
2026-05-06 14:41 48.90834 8.39355 30153 ft 404 kts 193°
2026-05-06 14:41 48.88086 8.38398 30476 ft 406 kts 193°
2026-05-06 14:42 48.85329 8.37438 30799 ft 408 kts 193°
2026-05-06 14:42 48.82556 8.36477 31113 ft 409 kts 193°
2026-05-06 14:42 48.79768 8.35518 31428 ft 411 kts 193°
2026-05-06 14:42 48.76987 8.34554 31838 ft 409 kts 193°
2026-05-06 14:43 48.74233 8.33565 32329 ft 407 kts 194°
2026-05-06 14:43 48.71493 8.32557 32780 ft 404 kts 194°
2026-05-06 14:43 48.68765 8.31543 33197 ft 403 kts 195°
2026-05-06 14:43 48.66043 8.30533 33642 ft 401 kts 195°
2026-05-06 14:44 48.63341 8.29536 34037 ft 400 kts 195°
2026-05-06 14:44 48.60633 8.28546 34359 ft 399 kts 195°
2026-05-06 14:44 48.57929 8.27565 34622 ft 400 kts 195°
2026-05-06 14:45 48.52491 8.25600 35121 ft 402 kts 195°
2026-05-06 14:45 48.49761 8.24898 35355 ft 405 kts 186°
2026-05-06 14:45 48.46897 8.24934 35592 ft 409 kts 176°
2026-05-06 14:45 48.44072 8.25584 35831 ft 412 kts 174°
2026-05-06 14:46 48.41240 8.26284 36064 ft 413 kts 174°
2026-05-06 14:46 48.38442 8.26966 36308 ft 414 kts 174°
2026-05-06 14:46 48.35560 8.27663 36556 ft 414 kts 174°
2026-05-06 14:46 48.32712 8.28350 36767 ft 415 kts 174°
2026-05-06 14:47 48.29896 8.29026 36838 ft 414 kts 174°
2026-05-06 14:47 48.24232 8.30382 36848 ft 412 kts 174°
2026-05-06 14:48 48.18575 8.31741 36847 ft 411 kts 174°
2026-05-06 14:48 48.12922 8.33109 36852 ft 411 kts 174°
2026-05-06 14:49 48.07274 8.34487 36859 ft 411 kts 174°
2026-05-06 14:49 48.01628 8.35857 36856 ft 411 kts 174°
2026-05-06 14:50 47.95974 8.37214 36863 ft 411 kts 174°
2026-05-06 14:50 47.90318 8.38577 36867 ft 412 kts 174°
2026-05-06 14:51 47.84667 8.39941 36867 ft 411 kts 174°
2026-05-06 14:51 47.79032 8.41289 36872 ft 410 kts 174°
2026-05-06 14:52 47.73396 8.42643 36865 ft 410 kts 173°
2026-05-06 14:52 47.68033 8.45585 36858 ft 421 kts 153°
2026-05-06 14:53 47.63441 8.51226 36868 ft 429 kts 142°
2026-05-06 14:53 47.59063 8.57216 36876 ft 429 kts 142°
2026-05-06 14:54 47.54701 8.63149 36878 ft 429 kts 143°
2026-05-06 14:54 47.50289 8.69134 36883 ft 429 kts 143°
2026-05-06 14:55 47.45890 8.75095 36882 ft 429 kts 143°
2026-05-06 14:55 47.41493 8.81047 36873 ft 428 kts 143°
2026-05-06 14:56 47.37095 8.86976 36898 ft 428 kts 143°
2026-05-06 14:56 47.32689 8.92886 36892 ft 428 kts 144°
2026-05-06 14:57 47.28274 8.98794 36879 ft 428 kts 144°
2026-05-06 14:57 47.23892 9.04656 36871 ft 428 kts 144°
2026-05-06 14:58 47.19483 9.10549 36862 ft 428 kts 144°
2026-05-06 14:58 47.15075 9.16427 36839 ft 427 kts 144°
2026-05-06 14:59 47.10666 9.22285 36841 ft 427 kts 144°
2026-05-06 14:59 47.06264 9.28119 36834 ft 427 kts 144°
2026-05-06 15:00 47.01854 9.33950 36841 ft 427 kts 144°
2026-05-06 15:00 46.97448 9.39785 36846 ft 427 kts 144°
2026-05-06 15:01 46.93038 9.45600 36816 ft 426 kts 144°
2026-05-06 15:01 46.88628 9.51393 36821 ft 426 kts 144°
2026-05-06 15:02 46.84210 9.57168 36837 ft 427 kts 144°
2026-05-06 15:02 46.79816 9.62890 36855 ft 426 kts 144°
2026-05-06 15:03 46.75391 9.68666 36859 ft 426 kts 144°
2026-05-06 15:03 46.70972 9.74422 36884 ft 427 kts 145°
2026-05-06 15:04 46.66543 9.80188 36870 ft 427 kts 145°
2026-05-06 15:04 46.62100 9.85940 36894 ft 428 kts 145°
2026-05-06 15:05 46.57650 9.91685 36896 ft 428 kts 145°
2026-05-06 15:05 46.53236 9.97383 36910 ft 427 kts 146°
2026-05-06 15:06 46.48783 10.03099 36901 ft 428 kts 146°
2026-05-06 15:06 46.44271 10.08734 36901 ft 427 kts 147°
2026-05-06 15:07 46.39683 10.14192 36874 ft 426 kts 148°
2026-05-06 15:07 46.35091 10.19615 36885 ft 426 kts 147°
2026-05-06 15:08 46.30503 10.25072 36898 ft 427 kts 147°
2026-05-06 15:08 46.26692 10.29626 36917 ft 427 kts 148°
2026-05-06 15:09 46.21360 10.35980 36926 ft 427 kts 148°
2026-05-06 15:09 46.17513 10.40538 36874 ft 427 kts 148°
2026-05-06 15:09 46.14478 10.44135 36732 ft 428 kts 148°
2026-05-06 15:10 46.12176 10.46864 36185 ft 427 kts 148°
2026-05-06 15:10 46.10628 10.48698 35850 ft 425 kts 149°
2026-05-06 15:10 46.08361 10.51382 35421 ft 419 kts 150°
2026-05-06 15:10 46.06122 10.54025 34998 ft 414 kts 150°
2026-05-06 15:11 46.03938 10.56602 34544 ft 407 kts 151°
2026-05-06 15:11 46.01772 10.59158 33865 ft 398 kts 152°
2026-05-06 15:11 45.99646 10.61667 33014 ft 391 kts 152°
2026-05-06 15:11 45.97558 10.64124 32150 ft 385 kts 152°
2026-05-06 15:12 45.95463 10.66566 30866 ft 392 kts 152°
2026-05-06 15:12 45.93365 10.69005 30346 ft 379 kts 152°
2026-05-06 15:12 45.91385 10.71339 30052 ft 360 kts 152°
2026-05-06 15:12 45.89477 10.73587 29625 ft 352 kts 152°
2026-05-06 15:13 45.87581 10.75799 29187 ft 349 kts 153°
2026-05-06 15:13 45.85700 10.77982 28684 ft 346 kts 153°
2026-05-06 15:13 45.83785 10.80182 27759 ft 357 kts 152°
2026-05-06 15:13 45.81842 10.82419 27154 ft 359 kts 151°
2026-05-06 15:14 45.79930 10.84644 26651 ft 358 kts 151°
2026-05-06 15:14 45.78006 10.86895 26153 ft 356 kts 150°
2026-05-06 15:14 45.76096 10.89129 25685 ft 354 kts 150°
2026-05-06 15:14 45.74197 10.91350 25262 ft 351 kts 150°
2026-05-06 15:15 45.72314 10.93544 24861 ft 347 kts 150°
2026-05-06 15:15 45.70440 10.95716 24436 ft 345 kts 150°
2026-05-06 15:15 45.68580 10.97865 23992 ft 343 kts 150°
2026-05-06 15:15 45.66731 11.00000 23567 ft 340 kts 150°
2026-05-06 15:16 45.64790 11.01822 23059 ft 329 kts 161°
2026-05-06 15:16 45.62697 11.02990 22549 ft 319 kts 172°
2026-05-06 15:16 45.60538 11.03595 22026 ft 315 kts 177°
2026-05-06 15:16 45.58385 11.04115 21536 ft 314 kts 176°
2026-05-06 15:17 45.56230 11.04639 21071 ft 313 kts 176°
2026-05-06 15:17 45.54088 11.05162 20635 ft 312 kts 176°
2026-05-06 15:17 45.51952 11.05682 20219 ft 310 kts 176°
2026-05-06 15:17 45.49831 11.06198 19794 ft 309 kts 176°
2026-05-06 15:18 45.47715 11.06708 19402 ft 308 kts 176°
2026-05-06 15:18 45.45631 11.07207 19020 ft 307 kts 176°
2026-05-06 15:18 45.43525 11.07713 18632 ft 306 kts 176°
2026-05-06 15:18 45.41430 11.08221 18259 ft 305 kts 176°
2026-05-06 15:19 45.39347 11.08727 17861 ft 303 kts 176°
2026-05-06 15:19 45.37276 11.09228 17462 ft 301 kts 176°
2026-05-06 15:19 45.35211 11.09724 17077 ft 300 kts 176°
2026-05-06 15:19 45.33162 11.10217 16701 ft 298 kts 175°
2026-05-06 15:20 45.31121 11.10709 16350 ft 296 kts 175°
2026-05-06 15:20 45.29094 11.11198 16048 ft 295 kts 175°
2026-05-06 15:20 45.27070 11.11687 15795 ft 295 kts 175°
2026-05-06 15:20 45.25047 11.12174 15545 ft 294 kts 175°
2026-05-06 15:21 45.23034 11.12654 15286 ft 293 kts 175°
2026-05-06 15:21 45.21028 11.13133 15051 ft 291 kts 175°
2026-05-06 15:21 45.19046 11.13607 14748 ft 288 kts 174°
2026-05-06 15:21 45.17068 11.14078 14371 ft 289 kts 174°
2026-05-06 15:22 45.15106 11.14546 13989 ft 290 kts 174°
2026-05-06 15:22 45.13090 11.15029 13581 ft 291 kts 174°
2026-05-06 15:22 45.11095 11.15508 13156 ft 291 kts 174°
2026-05-06 15:22 45.09132 11.15977 12773 ft 290 kts 174°
2026-05-06 15:23 45.07165 11.16448 12528 ft 284 kts 174°
2026-05-06 15:23 45.05225 11.16901 12198 ft 280 kts 176°
2026-05-06 15:23 45.03317 11.16777 11850 ft 272 kts 197°
2026-05-06 15:23 45.01531 11.15917 11476 ft 270 kts 202°
2026-05-06 15:24 44.99770 11.15010 11132 ft 269 kts 202°
2026-05-06 15:24 44.98018 11.14103 10791 ft 267 kts 202°
2026-05-06 15:24 44.96280 11.13203 10449 ft 265 kts 202°
2026-05-06 15:24 44.94549 11.12303 10093 ft 264 kts 202°
2026-05-06 15:25 44.92826 11.11406 9737 ft 263 kts 202°
2026-05-06 15:25 44.91113 11.10515 9342 ft 262 kts 202°
2026-05-06 15:25 44.89403 11.09628 8933 ft 261 kts 202°
2026-05-06 15:25 44.87699 11.08748 8561 ft 260 kts 202°
2026-05-06 15:26 44.86002 11.07873 8218 ft 257 kts 202°
2026-05-06 15:26 44.84371 11.07035 8036 ft 242 kts 202°
2026-05-06 15:26 44.82811 11.06232 7525 ft 237 kts 202°
2026-05-06 15:26 44.81267 11.05434 6962 ft 235 kts 202°
2026-05-06 15:27 44.79736 11.04644 6401 ft 233 kts 202°
2026-05-06 15:27 44.78215 11.03859 5785 ft 232 kts 202°
2026-05-06 15:27 44.76716 11.03084 5211 ft 233 kts 202°
2026-05-06 15:27 44.75195 11.02297 4832 ft 233 kts 201°
2026-05-06 15:28 44.73716 11.01387 4501 ft 229 kts 208°
2026-05-06 15:28 44.72324 11.00397 4382 ft 219 kts 207°
2026-05-06 15:28 44.70983 10.99457 4233 ft 212 kts 207°
2026-05-06 15:28 44.69671 10.98540 3993 ft 208 kts 207°
2026-05-06 15:29 44.68415 10.97662 3865 ft 194 kts 207°
2026-05-06 15:29 44.67252 10.96888 3676 ft 179 kts 200°
2026-05-06 15:29 44.66020 10.96781 3329 ft 180 kts 171°
2026-05-06 15:29 44.64909 10.97579 2981 ft 184 kts 142°
2026-05-06 15:30 44.64191 10.99078 2613 ft 189 kts 122°
2026-05-06 15:30 44.63603 11.00733 2541 ft 190 kts 121°
2026-05-06 15:30 44.63011 11.02403 2536 ft 191 kts 122°
2026-05-06 15:30 44.62417 11.04072 2538 ft 192 kts 122°
2026-05-06 15:31 44.61820 11.05747 2535 ft 191 kts 121°
2026-05-06 15:31 44.61243 11.07371 2563 ft 183 kts 121°
2026-05-06 15:31 44.60675 11.08960 2546 ft 181 kts 121°
2026-05-06 15:32 44.59560 11.12086 2472 ft 179 kts 122°
2026-05-06 15:32 44.59004 11.13642 2300 ft 178 kts 122°
2026-05-06 15:32 44.58457 11.15168 2116 ft 172 kts 120°
2026-05-06 15:32 44.57951 11.16602 1874 ft 158 kts 122°
2026-05-06 15:33 44.57465 11.17951 1659 ft 151 kts 122°
2026-05-06 15:33 44.57005 11.19233 1452 ft 144 kts 121°
2026-05-06 15:33 44.56561 11.20469 1162 ft 141 kts 122°
2026-05-06 15:33 44.56128 11.21680 1000 ft 136 kts 120°
2026-05-06 15:34 44.55708 11.22858 835 ft 134 kts 120°
2026-05-06 15:34 44.55287 11.24036 701 ft 136 kts 121°
2026-05-06 15:34 44.54858 11.25204 518 ft 133 kts 119°
2026-05-06 15:34 44.54454 11.26343 375 ft 130 kts 119°
2026-05-06 15:35 44.54050 11.27478 206 ft 130 kts 119°
2026-05-06 15:35 44.53659 11.28557 125 ft 111 kts 118°
2026-05-06 15:35 44.53389 11.29296 125 ft 52 kts 117°
2026-05-06 15:35 44.53264 11.29573 125 ft 29 kts 136°
2026-05-06 15:36 44.53133 11.29707 129 ft 16 kts 147°
2026-05-06 15:36 44.53066 11.29770 128 ft 6 kts 146°
2026-05-06 15:36 44.53060 11.29775 128 ft 0 kts 147°
2026-05-06 15:37 44.53035 11.29759 128 ft 10 kts 238°
2026-05-06 15:37 44.53062 11.29657 126 ft 17 kts 297°
2026-05-06 15:38 44.53117 11.29503 126 ft 15 kts 296°
2026-05-06 15:38 44.53154 11.29381 129 ft 10 kts 264°
2026-05-06 15:38 44.53108 11.29393 128 ft 9 kts 128°
2026-05-06 15:38 44.53055 11.29378 128 ft 0 kts 208°